Location: Bow
(51.5261°N, 0.0167°W)
Time: 14:06:33
(UTC+00:00)

Cosmos 2082 Rocket - Pass Details

Date: 18 September 2020
Orbit: 834 x 853 km, 71.0° (Epoch: 27 October)

Event Time Altitude Azimuth Distance (km) Brightness Sun altitude
Rises 20:37:48 0° 331° (NNW) 3,394 6.4 -22.8°
Reaches altitude 10° 20:40:27 10° 340° (NNW) 2,457 5.4 -23.2°
Maximum altitude 20:45:38 36° 47° (NE) 1,293 3.0 -23.8°
Enters shadow 20:46:24 35° 64° (ENE) 1,328 3.0 -23.9°
